www.pogodaiklimat.ru

Погода и климат >> Архив погоды >> Канада >> Нунавут >> Кеймбридж-Бей


ПОГОДА в Кеймбридж-Бее

  • Прогноз погоды в Кеймбридж-Бее
  • Монитор погоды в Кеймбридж-Бее

АРХИВ ПОГОДЫ в Кеймбридж-Бее

Время (UTC), дата Ветер
(напр.,м/с)
 
Видим.   Явления Облачность Т
(С)
Тd
(С)
f
(%)
Тe
(С)
Тes
(С)
Комфортность P
(гПа)
Po
(гПа)
Тmin
(С)
Tmax
(С)
R
(мм)
R24
(мм)
S
(см)
09 19.03 СВ 7 н/о н/о -29.2 -32.1 76 -44 -44 опасность
обморожения
1015.6 1013.0
12 19.03 СВ 6 н/о н/о -32.7 -35.8 74 -47 -47 опасность
обморожения
1016.9 1014.3 -32.7 -19.2 5
15 19.03 В 4 н/о н/о -30.9 -34.0 74 -42 -42 опасность
обморожения
1017.5 1014.9
18 19.03 ЮВ 5 н/о {осадки} н/о -25.9 -28.8 77 -38 -38 опасность
обморожения
1016.1 1013.5 -32.8 -25.9 0.4
21 19.03 ЮВ 9 н/о н/о -21.5 -24.0 80 -35 -35 опасность
обморожения
1012.1 1009.5
00 20.03 ЮВ 9 н/о н/о -19.6 -21.8 83 -32 -32 опасность
обморожения
1007.7 1005.1 -32.8 -19.6
03 20.03 ЮВ 6 н/о н/о -19.2 -21.3 83 -30 -30 1004.4 1001.9
06 20.03 СВ 1 н/о н/о -20.6 -22.8 82 -21 -21 1001.2 998.7 -32.8 -18.5 23
09 20.03 СВ 4 н/о н/о -19.5 -21.6 83 -28 -28 1000.5 998.0
12 20.03 С 4 н/о {осадки} н/о -18.4 -20.4 84 -26 -26 999.9 997.4 -21.6 -18.5 0.4 5
15 20.03 СЗ 3 н/о {осадки} н/о -17.6 -19.6 84 -25 -25 1001.2 998.7 0.4
18 20.03 СЗ 4 н/о {осадки} н/о -16.7 -18.7 84 -25 -25 1002.6 1000.1 -25.9 -16.6 0.7
21 20.03 С 6 н/о н/о -15.8 -17.7 85 -26 -26 1006.2 1003.7
00 21.03 СЗ 6 н/о н/о -15.0 -16.7 87 -24 -24 1010.0 1007.5 -21.6 -15.0
03 21.03 СЗ 4 н/о н/о -13.7 -15.4 87 -21 -21 1012.3 1009.8
06 21.03 СЗ 3 н/о н/о -15.1 -16.9 86 -22 -22 1015.0 1012.5 -21.6 -13.2 22
09 21.03 С 8 н/о н/о -20.1 -22.2 83 -33 -33 опасность
обморожения
1017.6 1015.1
12 21.03 СЗ 6 н/о н/о -19.6 -21.8 83 -30 -30 1020.0 1017.5 -21.4 -13.2 5
15 21.03 СЗ 6 н/о {осадки} н/о -24.2 -26.9 78 -36 -36 опасность
обморожения
1020.9 1018.4 0.5
18 21.03 СЗ 3 н/о {осадки} н/о -22.6 -25.3 79 -30 -30 1020.2 1017.7 -24.5 -15.1 1
21 21.03 ЮЗ 1 н/о н/о -20.9 -23.4 80 -24 -24 1018.2 1015.6 0.4
00 22.03 ЮВ 4 н/о н/о -20.3 -22.6 82 -29 -29 1015.2 1012.7 -24.5 -19.6 0.4
03 22.03 В 7 н/о н/о -19.8 -22.0 83 -32 -32 опасность
обморожения
1010.3 1007.8
06 22.03 В 8 н/о н/о -19.6 -21.7 83 -32 -32 опасность
обморожения
1006.3 1003.8 -24.5 -15.1 0.2 9
09 22.03 СВ 10 н/о н/о -19.6 -21.7 83 -33 -33 опасность
обморожения
1004.0 1001.5
12 22.03 СВ 11 н/о {осадки} н/о -20.6 -22.9 82 -35 -35 опасность
обморожения
1005.6 1003.1 -20.6 -15.1 0.2 5
15 22.03 СВ 9 н/о н/о -21.0 -23.4 81 -34 -34 опасность
обморожения
1009.5 1007.0
18 22.03 С 7 н/о {осадки} н/о -22.3 -25.2 77 -35 -35 опасность
обморожения
1012.2 1009.7 -22.6 -19.4 0.2
21 22.03 С 7 н/о н/о -22.9 -25.9 76 -36 -36 опасность
обморожения
1014.8 1012.3
00 23.03 С 7 н/о н/о -24.7 -27.6 77 -38 -38 опасность
обморожения
1016.6 1014.0 -24.7 -20.6
03 23.03 С 5 н/о н/о -28.2 -31.2 75 -40 -40 опасность
обморожения
1020.3 1017.7
06 23.03 С 6 н/о н/о -29.8 -32.9 74 -44 -44 опасность
обморожения
1024.7 1022.1 -30.0 -19.4 11
09 23.03 СЗ 8 н/о н/о -30.6 -33.7 74 -46 -46 опасность
обморожения
1028.8 1026.2
12 23.03 СЗ 7 н/о н/о -30.6 -33.7 74 -45 -45 опасность
обморожения
1031.7 1029.1 -31.0 -19.4 5
15 23.03 СЗ 6 н/о н/о -28.9 -32.1 74 -42 -42 опасность
обморожения
1033.5 1030.9
18 23.03 З 3 н/о н/о -26.0 -29.1 75 -35 -35 опасность
обморожения
1035.2 1032.6 -31.0 -25.9
21 23.03 З 6 н/о н/о -22.2 -25.2 77 -33 -33 опасность
обморожения
1035.5 1032.9
00 24.03 СЗ 7 н/о н/о -22.8 -25.8 76 -35 -35 опасность
обморожения
1036.6 1034.0 -31.0 -22.1
03 24.03 СЗ 5 н/о н/о -24.9 -27.8 77 -36 -36 опасность
обморожения
1037.1 1034.5
06 24.03 З 2 н/о н/о -26.4 -29.5 75 -32 -32 опасность
обморожения
1037.3 1034.7 -31.0 -22.1 15
09 24.03 СЗ 6 н/о н/о -27.2 -30.3 75 -40 -40 опасность
обморожения
1037.7 1035.1
12 24.03 З 5 н/о н/о -28.6 -31.7 75 -41 -41 опасность
обморожения
1037.4 1034.8 -28.6 -22.1 5
15 24.03 З 4 н/о н/о -28.0 -31.2 74 -38 -38 опасность
обморожения
1036.6 1034.0
18 24.03 С 5 н/о {осадки} н/о -26.7 -30.0 74 -38 -38 опасность
обморожения
1034.6 1032.0 -29.4 -25.0 0.3
21 24.03 З 2 н/о {осадки} н/о -24.1 -27.4 74 -29 -29 1032.9 1030.3 0.2
00 25.03 В 1 н/о {осадки} н/о -24.9 -27.8 77 -29 -29 1030.6 1028.0 -29.4 -22.1 0.2
03 25.03 В 2 н/о н/о -27.9 -30.7 77 -35 -35 опасность
обморожения
1028.1 1025.5
06 25.03 В 4 н/о н/о -26.8 -29.6 77 -37 -37 опасность
обморожения
1025.0 1022.4 -29.4 -22.1
09 25.03 ЮВ 6 н/о н/о -25.3 -27.9 79 -37 -37 опасность
обморожения
1021.2 1018.6
12 25.03 ЮВ 7 н/о {осадки} н/о -24.2 -27.0 78 -37 -37 опасность
обморожения
1016.7 1014.1 -29.1 -22.1 0.5 5
15 25.03 ЮВ 6 н/о н/о -22.6 -25.4 78 -34 -34 опасность
обморожения
1013.2 1010.6 0.3
18 25.03 ЮВ 6 н/о {осадки} н/о -18.3 -20.6 82 -29 -29 1009.4 1006.9 -29.1 -18.3 0.3
21 25.03 Ю 7 н/о н/о -14.0 -16.0 85 -24 -24 1006.3 1003.8
00 26.03 Ю 4 н/о н/о -13.3 -15.1 86 -21 -21 1004.2 1001.7 -27.0 -13.3
03 26.03 С 1 н/о н/о -13.8 -15.4 88 -14 -14 1002.8 1000.3 0.2

 

Местоположение метеостанции Кеймбридж-Бей (Нунавут, Канада): широта 69.10 долгота -105.10 высота над уровнем моря 19 м.

В архиве по умолчанию представлена погода в Кеймбридж-Бее за последнюю неделю. Архивные данные за месяц целиком и за предыдущие месяцы, начиная с января 2011 года, Вы можете получить, выбрав интересующий диапазон дат из раскрывающегося списка и нажав кнопку "Ввод!".


*Определитесь, кто Вы:
робот инопланетянин человек

Внимание! Время в таблицах - всемирное. Для получения местного времени необходимо прибавить поправку, которая равна -7 ч.

Смотрите также архив погоды в соседних городах и на ближайших метеорологических станциях:

Погода на Мысе Пил-Вест (Нунавут, Канада) (108 км)
Погода на Острове Хат (Нунавут, Канада) (223 км)
Погода в Джойа Хейвен (Нунавут, Канада) (374 км)
Погода в Куглуктуке (Нунавут, Канада) (432 км)
Погода в Куглуктуке (Северо-Западные территории, Канада) (432 км)
Погода в Люпине (Нунавут, Канада) (452 км)
Погода в Саскатуне (Саскачеван, Канада) (452 км)
Погода в Талойоаке (Нунавут, Канада) (454 км)
Погода на Озере Робертсон (Нунавут, Канада) (460 км)
Погода в Шеперд-Бее (Нунавут, Канада) (466 км)

Пояснения к столбцам:

Ветер - указаны скорость ветра в м/с - средняя за 10 мин, порывы в срок и между сроками (в фигурных скобках) и направление, откуда дует ветер: С - северный, СВ - северо-восточный, В - восточный, ЮВ - юго-восточный, Ю - южный, ЮЗ - юго-западный, З - западный, СЗ - северо-западный.
Видимость - горизонтальная дальность видимости в метрах или километрах. При видимости от 1 до 10 км при отсутствии осадков обычно наблюдается дымка, при ухудшении видимости до 1 км и менее - туман. В сухую погоду видимость может ухудшаться дымом, пылью или мглою.
Явления - указаны атмосферные явления, наблюдавшиеся в срок или в последний час перед сроком; фигурными скобками обозначены явления, наблюдавшиеся между сроками (за 1-3 часа до срока); квадратными скобками обозначены град или гололедные отложения с указанием их диаметра в мм.
Облачность - указаны через наклонную черту общая и нижняя облачность в баллах и высота нижней границы облаков в метрах; квадратными скобками обозначены формы облаков: Ci - перистые, Cs - перисто-слоистые, Cc - перисто-кучевые, Ac - высококучевые, As - высокослоистые, Sc - слоисто-кучевые, Ns - слоисто-дождевые, Cu - кучевые, Cb - кучево-дождевые. Подробнее классификацию облаков см. в Атласе облаков (PDF).
T - Температура воздуха - температура, измеренная на высоте 2 м над землей.
Td - Температура точки росы - температура, при понижении до которой содержащийся в воздухе водяной пар достигнет насыщения.
f - Относительная влажность воздуха - влажноcть воздуха, измеренная на высоте 2 м над землей.
Te - Эффективная температура - температура, которую ощущает одетый по сезону человек в тени. Характеристика душности погоды. При расчете учитывается влияние влажности воздуха и скорости ветра на теплоощущения человека.
Tes - Эффективная температура на солнце - температура, которую ощущает человек, с поправкой на солнечный нагрев. Характеристика знойности погоды. Зависит от высоты солнца над горизонтом, облачности и скорости ветра. Ночью, в пасмурную погоду, а также при ветре 12 м/с и более поправка равна нулю.
P - Атмосферное давление - приведенное к уровню моря атмосферное давление.
Po - Атмосферное давление - измеренное на уровне метеостанции атмосферное давление.
Tmin - Минимальная температура - минимум температуры воздуха на высоте 2 м над землей.
Tmax - Максимальная температура - максимум температуры воздуха на высоте 2 м над землей.
R - Количество осадков - Количество выпавших осадков за период времени, мм. При наведении курсора мыши на число - период времени, за который выпало указанное количество осадков.
R24 - Количество осадков - Количество выпавших осадков за 24 часа, мм.
S - Снежный покров - Высота снежного покрова, см. При наведении курсора мыши на число - состояние снежного покрова и степень покрытия местности в баллах.